Total_Precipitation_Accumulation
1.65 1.52 2.24 2.26 1.90 1.54 1.44 1.47 1.35 1.23 1.22 1.14 0.90 0.83 0.81 0.82 0.73 0.61 0.50 0.42 0.41 0.41 0.45 0.45 0.47 0.51 0.50 0.45 0.45 0.60 0.64 0.54 0.48 0.49 0.63 0.72 0.74 0.82 0.91 1.08 1.40 1.66 1.34
1.37 1.32 2.09 2.25 1.95 1.59 1.38 1.37 1.37 1.27 1.27 1.12 0.98 0.87 0.85 0.82 0.73 0.61 0.47 0.40 0.41 0.40 0.39 0.42 0.48 0.49 0.48 0.51 0.56 0.65 0.61 0.48 0.40 0.47 0.76 0.97 0.90 0.82 0.83 0.96 1.35 1.58 1.30
1.11 1.12 1.62 2.11 1.95 1.61 1.38 1.32 1.33 1.27 1.30 1.21 1.11 0.97 0.88 0.79 0.73 0.62 0.48 0.46 0.48 0.43 0.40 0.43 0.54 0.54 0.51 0.60 0.62 0.63 0.60 0.48 0.43 0.58 1.05 1.75 1.36 0.90 0.84 0.94 1.17 1.09 1.12
1.05 1.03 1.21 1.74 1.67 1.41 1.25 1.27 1.30 1.25 1.33 1.28 1.07 0.89 0.76 0.75 0.77 0.65 0.58 0.64 0.50 0.42 0.39 0.44 0.54 0.58 0.58 0.62 0.65 0.64 0.61 0.60 0.65 0.77 1.24 1.75 1.77 1.19 1.05 1.18 1.19 1.08 1.15
1.05 1.04 1.38 1.74 1.63 1.44 1.28 1.35 1.41 1.33 1.34 1.20 0.94 0.76 0.72 0.76 0.80 0.79 0.79 0.74 0.50 0.41 0.37 0.42 0.53 0.60 0.62 0.63 0.62 0.60 0.59 0.68 0.88 0.98 1.27 1.61 1.92 1.50 1.18 1.25 1.24 1.14 1.25
1.03 1.01 1.29 1.63 1.59 1.46 1.34 1.38 1.42 1.43 1.40 1.28 1.02 0.83 0.80 0.82 0.81 0.80 0.86 0.74 0.62 0.52 0.44 0.47 0.56 0.62 0.62 0.61 0.63 0.61 0.66 0.77 0.86 1.07 1.34 1.66 1.81 1.45 1.17 1.19 1.20 1.29 1.28
0.92 0.89 1.03 1.41 1.46 1.35 1.32 1.45 1.51 1.52 1.49 1.41 1.17 0.99 0.88 0.82 0.81 0.83 0.89 0.76 0.71 0.63 0.59 0.61 0.65 0.65 0.64 0.65 0.60 0.60 0.64 0.67 0.72 0.96 1.19 1.66 1.62 1.30 1.14 1.14 1.15 1.18 1.22
1.07 0.95 0.88 1.16 1.27 1.24 1.26 1.37 1.41 1.41 1.37 1.32 1.15 1.00 0.92 0.88 0.85 0.92 0.98 0.87 0.79 0.69 0.63 0.65 0.69 0.73 0.74 0.70 0.65 0.63 0.63 0.56 0.58 0.78 1.03 1.42 1.49 1.36 1.18 1.16 1.27 1.19 1.20
1.22 1.13 0.98 0.98 1.07 1.24 1.35 1.35 1.28 1.20 1.19 1.16 1.05 1.00 0.94 0.90 0.84 0.87 0.91 0.85 0.83 0.82 0.78 0.72 0.76 0.81 0.73 0.72 0.70 0.66 0.63 0.55 0.60 0.75 0.80 1.24 1.38 1.32 1.16 1.14 1.28 1.32 1.32
1.41 1.20 1.00 0.92 0.95 1.02 1.11 1.22 1.28 1.26 1.20 1.16 1.03 0.93 0.89 0.84 0.75 0.78 0.74 0.72 0.78 0.90 0.96 0.90 0.86 0.80 0.74 0.73 0.72 0.67 0.64 0.50 0.57 0.68 0.84 1.01 1.23 1.30 1.19 1.05 1.02 1.05 1.13
1.19 1.06 1.06 1.02 1.04 1.07 1.02 1.06 1.24 1.30 1.28 1.13 1.04 0.98 0.88 0.68 0.60 0.66 0.63 0.75 0.85 1.01 1.08 1.05 1.01 0.89 0.77 0.67 0.68 0.66 0.53 0.45 0.58 0.69 0.89 0.97 1.22 1.32 1.24 1.05 0.92 0.86 0.92
0.87 0.86 0.90 0.93 1.03 1.07 0.98 1.21 1.42 1.27 1.13 0.90 0.91 0.82 0.80 0.74 0.71 0.59 0.63 0.83 0.97 1.02 1.00 1.04 1.08 0.93 0.72 0.53 0.57 0.55 0.40 0.40 0.48 0.54 0.70 1.00 1.23 1.30 1.24 1.09 0.92 0.82 0.84
0.76 0.75 0.70 0.74 0.83 0.93 1.08 1.34 1.60 1.64 1.42 1.20 1.00 0.92 0.89 0.78 0.69 0.64 0.63 0.70 0.77 0.81 0.72 0.78 0.82 0.68 0.58 0.56 0.57 0.45 0.38 0.42 0.45 0.51 0.71 1.02 1.24 1.31 1.19 1.10 1.03 0.93 0.88
0.61 0.69 0.55 0.50 0.64 0.76 0.88 1.02 1.28 1.36 1.29 1.14 0.95 0.87 0.93 0.87 0.76 0.73 0.70 0.75 0.75 0.74 0.80 0.83 0.87 0.79 0.64 0.58 0.57 0.58 0.52 0.47 0.52 0.62 0.78 0.94 1.23 1.36 1.29 1.20 1.15 1.05 0.99
0.60 0.68 0.62 0.52 0.52 0.56 0.62 0.70 0.83 1.01 1.12 1.10 1.02 0.85 0.85 0.83 0.79 0.80 0.75 0.79 0.71 0.70 0.79 0.85 0.84 0.85 0.78 0.66 0.61 0.62 0.69 0.63 0.60 0.64 0.80 0.96 1.26 1.48 1.56 1.42 1.25 1.16 1.14
0.54 0.67 0.67 0.57 0.52 0.53 0.53 0.53 0.53 0.69 0.85 1.00 0.98 0.87 0.88 0.88 0.83 0.87 0.83 0.83 0.80 0.75 0.78 0.94 0.88 0.92 0.91 0.84 0.67 0.65 0.68 0.66 0.62 0.65 0.76 0.99 1.13 1.25 1.49 1.66 1.52 1.35 1.22
0.49 0.54 0.61 0.57 0.59 0.62 0.63 0.64 0.53 0.57 0.65 0.78 0.89 0.87 0.93 0.88 0.80 0.84 0.85 0.83 0.82 0.83 0.83 0.88 0.91 0.97 0.89 0.84 0.77 0.72 0.70 0.65 0.59 0.65 0.67 0.76 0.76 0.87 1.12 1.40 1.58 1.50 1.41
0.53 0.56 0.61 0.60 0.65 0.71 0.75 0.78 0.73 0.77 0.81 0.82 0.95 0.91 0.86 0.89 0.86 0.86 0.90 0.92 0.96 0.99 0.96 0.97 1.01 1.04 1.00 0.99 0.97 0.92 0.75 0.73 0.67 0.67 0.67 0.67 0.72 0.68 0.80 0.94 1.16 1.31 1.46
0.49 0.51 0.54 0.62 0.66 0.67 0.74 0.86 0.99 1.04 1.04 1.00 1.04 0.99 0.88 0.87 0.92 1.03 1.07 1.12 1.10 1.11 1.14 1.10 1.12 1.05 1.05 1.06 0.99 0.98 0.85 0.83 0.80 0.68 0.74 0.77 0.75 0.71 0.73 0.66 0.72 0.82 1.05
0.39 0.43 0.47 0.54 0.71 0.83 0.89 0.92 1.08 1.14 1.21 1.30 1.35 1.23 1.09 1.10 1.23 1.37 1.46 1.40 1.39 1.38 1.37 1.33 1.42 1.31 1.13 1.13 1.06 1.01 0.88 0.79 0.86 0.82 0.82 0.81 0.85 0.83 0.77 0.66 0.61 0.53 0.63
0.26 0.32 0.37 0.43 0.59 0.72 0.81 0.92 1.11 1.29 1.46 1.62 1.74 1.63 1.49 1.45 1.61 1.72 1.65 1.74 1.77 1.64 1.63 1.68 1.75 1.70 1.44 1.30 1.38 1.27 1.00 0.76 0.84 0.83 0.80 0.84 0.91 1.02 1.04 0.90 0.76 0.68 0.64
0.16 0.21 0.26 0.33 0.44 0.56 0.71 0.94 1.16 1.46 1.55 1.64 1.78 1.82 1.76 1.69 1.84 1.88 1.96 2.02 2.06 2.05 2.01 1.90 1.98 2.08 1.81 1.60 1.71 1.99 1.57 1.17 0.85 0.69 0.78 0.82 0.93 1.16 1.23 1.06 0.86 0.79 0.76
0.11 0.13 0.20 0.31 0.45 0.67 0.89 1.21 1.50 1.73 1.81 1.86 1.82 1.88 1.97 2.02 2.08 2.10 2.16 2.22 2.22 2.07 2.06 2.15 2.24 2.57 2.39 2.04 1.86 2.11 1.90 1.57 1.28 0.87 0.82 0.88 0.97 1.14 1.26 1.28 1.16 1.08 0.98
0.12 0.16 0.27 0.44 0.63 0.90 1.24 1.59 1.82 2.05 2.15 2.00 1.98 2.02 2.03 1.98 2.01 2.12 2.14 2.13 2.10 2.04 2.10 2.16 2.19 2.57 2.75 2.45 2.14 1.81 1.60 1.57 1.62 1.31 0.98 0.94 1.03 1.05 1.17 1.24 1.19 1.24 1.22
0.26 0.33 0.49 0.73 1.03 1.30 1.53 1.71 1.92 2.05 2.07 2.05 2.02 2.01 1.94 1.91 1.87 1.91 1.93 2.01 2.04 2.09 2.14 2.30 2.40 2.62 2.65 2.65 2.47 2.29 2.08 1.79 1.44 1.48 1.41 1.17 1.13 1.06 1.15 1.27 1.31 1.38 1.39
0.43 0.56 0.74 0.91 1.20 1.38 1.49 1.61 1.80 1.95 1.99 2.01 1.99 1.99 1.98 1.95 1.85 1.79 1.76 1.82 1.94 2.11 2.17 2.25 2.38 2.61 2.71 2.79 2.72 2.46 2.37 2.20 1.91 1.78 1.54 1.39 1.38 1.20 1.18 1.21 1.25 1.38 1.50